Home > Weather > Shawinigan > Past weeks

Flag for Canada Weather for the Past 2 Weeks in Shawinigan, Quebec, Canada

Now
38 °F

Chilly.


Feels Like: 34 °F
Forecast: 32 / 56 °F
Wind: 5 mph from North

Location: Shawinigan CS

Current Time: May 1, 2016 at 7:53:16 AM

Latest Report: May 1, 2016 at 7:00 AM


Visibility: N/A

Pressure: 30.22 "Hg

Humidity: 47%

Dew Point: 19 °F

Location of ShawiniganLocation

Historic Weather in Shawinigan — Graph

°F

Shawinigan Temperature Yesterday

Maximum temperature yesterday: 56 °F (at 6:00 PM)
Minimum temperature yesterday: 33 °F (at 3:00 AM)
Average temperature yesterday: 45 °F

High & Low Weather Summary for the Past Weeks

 TemperatureHumidityPressure
High69 °F (Apr 17, 6:00 PM)95% (Apr 22, 12:00 PM)30.63 "Hg (Apr 22, 12:00 PM)
Low22 °F (Apr 27, 6:00 AM)12% (Apr 30, 4:00 PM)29.76 "Hg (Apr 22, 3:00 PM)
Average42 °F40%30.12 "Hg
* Reported Apr 16 6:00 AM — May 1 6:00 AM, Shawinigan, Weather by CustomWeather, © 2016

Note: Actual official high and low records may vary slightly from our data, if they occured in-between our weather recording intervals... More about our weather records

Advertising

Shawinigan Weather History for the Previous 24 Hours

Scroll right to see more
 ConditionsComfort  
Time TempWeatherWind HumidityBarometerVisibility
6:00 AM
Sun, May 1
35 °FChilly.5 mph51%30.22 "HgN/A
5:00 AM34 °FChilly.3 mph53%30.22 "HgN/A
4:00 AM36 °FChilly.2 mph47%30.23 "HgN/A
3:00 AM36 °FChilly.5 mph47%30.23 "HgN/A
2:00 AM37 °FChilly.5 mph42%30.22 "HgN/A
1:00 AM38 °FChilly.3 mph40%30.23 "HgN/A
12:00 AM39 °FChilly.1 mph37%30.24 "HgN/A
11:00 PM
Sat, Apr 30
41 °FQuite cool.3 mph35%30.24 "HgN/A
10:00 PM43 °FQuite cool.6 mph29%30.24 "HgN/A
9:00 PM47 °FCool.5 mph21%30.24 "HgN/A
8:00 PM52 °FCool.3 mph15%30.23 "HgN/A
7:00 PM55 °FCool.5 mph15%30.22 "HgN/A
6:00 PM56 °FRefreshingly cool.6 mph14%30.21 "HgN/A
5:00 PM55 °FRefreshingly cool.7 mph12%30.21 "HgN/A
4:00 PM55 °FRefreshingly cool.8 mph12%30.22 "HgN/A
3:00 PM53 °FCool.5 mph14%30.23 "HgN/A
2:00 PM53 °FCool.7 mph15%30.24 "HgN/A
1:00 PM52 °FCool.8 mph17%30.26 "HgN/A
12:00 PM50 °FCool.9 mph18%30.27 "HgN/A
11:00 AM48 °FCool.7 mph21%30.29 "HgN/A
10:00 AM46 °FCool.6 mph22%30.28 "HgN/A
9:00 AM43 °FQuite cool.5 mph29%30.29 "HgN/A
8:00 AM39 °FChilly.6 mph35%30.28 "HgN/A
7:00 AM36 °FChilly.5 mph39%30.27 "HgN/A
Weather by CustomWeather, © 2016

See weather overviewHow to use our weather pages